Weather History for Manassas, VA

Change the Weather History Date:

Wednesday, December 5, 2012

  Actual Average Record
Temperature  
Mean Temperature 50 °F -  
Max Temperature 62 °F 48 °F 78 °F (2001)
Min Temperature 37 °F 28 °F 17 °F (2006)
Degree Days  
Heating Degree Days 16    
Moisture  
Dew Point 37 °F    
Average Humidity 56    
Maximum Humidity 77    
Minimum Humidity 34    
Precipitation  
Precipitation 0.00 in - - ()
Sea Level Pressure  
Sea Level Pressure 30.16 in    
Wind  
Wind Speed 9 mph (NNW)    
Max Wind Speed 18 mph    
Max Gust Speed 25 mph    
Visibility 10 miles    
Events Rain    
Averages and records for this station are not official NWS values.
T = Trace of Precipitation, MM = Missing Value Source: NWS Daily Summary

Daily Weather History Graph

Daily Weather History Graph

Search for Another Location

Airport:

Trip Planner

Search our weather history database for the weather conditions in past years. The results will help you decide how hot, cold, wet, or windy it might be!

Date:

Astronomy

Dec. 05, 2012 Rise Set
Actual Time 7:13 AM EST 4:48 PM EST
Civil Twilight 6:43 AM EST 5:17 PM EST
Nautical Twilight 6:10 AM EST 5:51 PM EST
Astronomical Twilight 5:38 AM EST 6:23 PM EST
Moon 11:32 PM EST (12/5) 11:38 AM EST (12/5)
Length of Visible Light 10h 34m
Length of Day
9h 34m
Waning Gibbous, 60% of the Moon is Illuminated
Dec 5
Waning Gibbous
Dec 6
Last Quarter
Dec 13
New
Dec 20
First Quarter
Dec 28
Full

Hourly Weather History & Observations

Time (EST) Temp. Windchill Dew Point Humidity Pressure Visibility Wind Dir Wind Speed Gust Speed Precip Events Conditions
12:15 AM 62.6 °F - 48.2 °F 59% 30.02 in 10.0 mi SSW 9.2 mph - N/A   Mostly Cloudy
12:35 AM 62.6 °F - 48.2 °F 59% 30.01 in 10.0 mi SSW 9.2 mph - N/A   Partly Cloudy
12:55 AM 62.6 °F - 48.2 °F 59% 30.01 in 10.0 mi SSW 5.8 mph - N/A   Clear
1:15 AM 60.8 °F - 48.2 °F 63% 30.01 in 10.0 mi SSW 6.9 mph - N/A   Clear
1:35 AM 60.8 °F - 48.2 °F 63% 30.01 in 10.0 mi SSW 5.8 mph - N/A   Clear
1:55 AM 60.8 °F - 48.2 °F 63% 30.01 in 10.0 mi SSW 4.6 mph - N/A   Mostly Cloudy
2:15 AM 60.8 °F - 48.2 °F 63% 30.01 in 10.0 mi SSW 4.6 mph - N/A   Mostly Cloudy
2:55 AM 59.0 °F - 48.2 °F 67% 30.01 in 10.0 mi SW 4.6 mph - N/A   Partly Cloudy
3:15 AM 59.0 °F - 48.2 °F 67% 30.01 in 10.0 mi Calm Calm - N/A   Clear
3:35 AM 59.0 °F - 48.2 °F 67% 30.02 in 10.0 mi WNW 6.9 mph - N/A   Mostly Cloudy
3:55 AM 60.8 °F - 48.2 °F 63% 30.03 in 10.0 mi WNW 4.6 mph - N/A   Mostly Cloudy
4:15 AM 59.0 °F - 50.0 °F 72% 30.04 in 10.0 mi North 8.1 mph - N/A   Mostly Cloudy
4:35 AM 59.0 °F - 51.8 °F 77% 30.04 in 10.0 mi NNW 8.1 mph - N/A   Mostly Cloudy
4:55 AM 59.0 °F - 48.2 °F 67% 30.06 in 10.0 mi North 17.3 mph - N/A   Overcast
5:15 AM 59.0 °F - 46.4 °F 63% 30.06 in 10.0 mi NNW 18.4 mph 23.0 mph N/A   Overcast
5:35 AM 57.2 °F - 44.6 °F 63% 30.08 in 10.0 mi NW 16.1 mph 25.3 mph N/A   Overcast
5:55 AM 57.2 °F - 46.4 °F 67% 30.08 in 10.0 mi NW 12.7 mph - N/A   Overcast
6:15 AM 55.4 °F - 46.4 °F 72% 30.10 in 10.0 mi NW 5.8 mph - N/A   Overcast
6:45 AM 55.4 °F - 46.4 °F 72% 30.12 in 10.0 mi North 5.8 mph - N/A Rain Rain
9:45 AM 53.6 °F - 37.4 °F 54% 30.18 in 10.0 mi NNW 8.1 mph - N/A   Partly Cloudy
10:45 AM 53.6 °F - 37.4 °F 54% 30.18 in 10.0 mi NNW 9.2 mph 18.4 mph N/A   Clear
11:45 AM 55.4 °F - 33.8 °F 44% 30.17 in 10.0 mi NW 11.5 mph 16.1 mph N/A   Clear
12:45 PM 57.2 °F - 33.8 °F 41% 30.14 in 10.0 mi WNW 12.7 mph 21.9 mph N/A   Clear
1:45 PM 60.8 °F - 32.0 °F 34% 30.14 in 10.0 mi NW 9.2 mph 16.1 mph N/A   Clear
2:55 PM 59.0 °F - 32.0 °F 36% 30.13 in 10.0 mi NW 13.8 mph 17.3 mph N/A   Clear
4:15 PM 55.4 °F - 28.4 °F 36% 30.16 in 10.0 mi NNW 6.9 mph 20.7 mph N/A   Clear
4:35 PM 53.6 °F - 30.2 °F 41% 30.16 in 10.0 mi NW 12.7 mph - N/A   Clear
4:55 PM 53.6 °F - 28.4 °F 38% 30.18 in 10.0 mi NNW 10.4 mph - N/A   Clear
5:15 PM 51.8 °F - 28.4 °F 41% 30.19 in 10.0 mi North 6.9 mph - N/A   Clear
5:35 PM 51.8 °F - 28.4 °F 41% 30.20 in 10.0 mi North 10.4 mph - N/A   Clear
5:55 PM 50.0 °F - 28.4 °F 43% 30.21 in 10.0 mi NNW 11.5 mph - N/A   Clear
6:15 PM 50.0 °F - 28.4 °F 43% 30.22 in 10.0 mi North 12.7 mph - N/A   Clear
6:35 PM 48.2 °F - 30.2 °F 50% 30.23 in 10.0 mi North 8.1 mph - N/A   Clear
6:55 PM 48.2 °F - 30.2 °F 50% 30.23 in 10.0 mi NNW 15.0 mph 21.9 mph N/A   Clear
7:15 PM 46.4 °F 42.9 °F 30.2 °F 53% 30.26 in 10.0 mi NNE 6.9 mph - N/A   Clear
7:35 PM 46.4 °F 42.4 °F 30.2 °F 53% 30.27 in 10.0 mi NNE 8.1 mph - N/A   Clear
7:55 PM 44.6 °F 40.2 °F 30.2 °F 57% 30.27 in 10.0 mi North 8.1 mph - N/A   Clear
8:15 PM 42.8 °F 37.5 °F 30.2 °F 61% 30.28 in 10.0 mi North 9.2 mph - N/A   Clear
8:35 PM 44.6 °F 38.8 °F 30.2 °F 57% 30.28 in 10.0 mi North 11.5 mph 17.3 mph N/A   Clear
8:55 PM 44.6 °F 37.4 °F 28.4 °F 53% 30.28 in 10.0 mi NNW 16.1 mph 23.0 mph N/A   Clear
9:15 PM 42.8 °F 35.4 °F 28.4 °F 57% 30.29 in 10.0 mi North 15.0 mph 20.7 mph N/A   Clear
9:35 PM 42.8 °F 37.0 °F 28.4 °F 57% 30.30 in 10.0 mi North 10.4 mph - N/A   Clear
9:55 PM 41.0 °F 33.1 °F 26.6 °F 57% 30.30 in 10.0 mi North 15.0 mph 19.6 mph N/A   Clear
10:15 PM 41.0 °F 35.8 °F 26.6 °F 57% 30.31 in 10.0 mi North 8.1 mph - N/A   Clear
10:35 PM 39.2 °F 32.5 °F 26.6 °F 61% 30.31 in 10.0 mi North 10.4 mph - N/A   Clear
10:55 PM 39.2 °F 33.0 °F 26.6 °F 61% 30.30 in 10.0 mi North 9.2 mph - N/A   Clear
11:15 PM 39.2 °F 33.6 °F 26.6 °F 61% 30.32 in 10.0 mi North 8.1 mph - N/A   Clear
11:35 PM 37.4 °F 32.1 °F 26.6 °F 65% 30.32 in 10.0 mi North 6.9 mph - N/A   Clear
11:55 PM 37.4 °F 30.8 °F 24.8 °F 60% 30.31 in 10.0 mi North 9.2 mph - N/A   Clear